| time (UTC) | temp F | wind direction | speed MPH | gust MPH | rain 1hr in | rain 24hr in | rain mn in | humidity % | barometer mb |
| 20260505014616 | 78 | 144 | 1.0 | 3.0 | 0.00 | 0.00 | 0.00 | 65 | 1017.0 |
| 20260505014115 | 78 | 218 | 1.0 | 3.0 | 0.00 | 0.00 | 0.00 | 66 | 1016.0 |
| 20260505013615 | 79 | 182 | 4.0 | 4.0 | 0.00 | 0.00 | 0.00 | 63 | 1017.0 |
| 20260505013116 | 80 | 354 | 2.0 | 3.0 | 0.00 | 0.00 | 0.00 | 63 | 1017.0 |
| 20260505012615 | 79 | 232 | 4.0 | 5.0 | 0.00 | 0.00 | 0.00 | 63 | 1017.0 |
| 20260505012115 | 79 | 183 | 3.0 | 5.0 | 0.00 | 0.00 | 0.00 | 64 | 1017.0 |
| 20260505011616 | 78 | 16 | 3.0 | 3.0 | 0.00 | 0.00 | 0.00 | 66 | 1017.0 |
| 20260505011117 | 77 | 21 | 3.0 | 3.0 | 0.00 | 0.00 | 0.00 | 67 | 1017.0 |
| 20260505010615 | 76 | 316 | 2.0 | 3.0 | 0.00 | 0.00 | 0.00 | 69 | 1017.0 |
| 20260505010119 | 77 | 336 | 2.0 | 4.0 | 0.00 | 0.00 | 0.00 | 68 | 1018.0 |
| 20260505005619 | 77 | 288 | 3.0 | 4.0 | 0.00 | 0.00 | 0.00 | 67 | 1018.0 |
| 20260505005117 | 78 | 208 | 5.0 | 6.0 | 0.00 | 0.00 | 0.00 | 68 | 1018.0 |
| 20260505004615 | 75 | 115 | 0.0 | 5.0 | 0.00 | 0.00 | 0.00 | 72 | 1018.0 |
| 20260505004115 | 76 | 37 | 5.0 | 6.0 | 0.00 | 0.00 | 0.00 | 71 | 1018.0 |
| 20260505003615 | 76 | 76 | 3.0 | 3.0 | 0.00 | 0.00 | 0.00 | 72 | 1018.0 |
| 20260505003115 | 76 | 166 | 4.0 | 5.0 | 0.00 | 0.00 | 0.00 | 73 | 1018.0 |
| 20260505002615 | 76 | 146 | 2.0 | 3.0 | 0.00 | 0.00 | 0.00 | 74 | 1018.0 |
| 20260505002115 | 76 | 283 | 2.0 | 3.0 | 0.00 | 0.00 | 0.00 | 73 | 1018.0 |
| 20260505001615 | 76 | 184 | 6.0 | 6.0 | 0.00 | 0.00 | 0.00 | 73 | 1018.0 |
| 20260505001115 | 75 | 204 | 4.0 | 5.0 | 0.00 | 0.00 | 0.00 | 75 | 1018.0 |
| 20260505000616 | 75 | 316 | 1.0 | 5.0 | 0.00 | 0.00 | 0.00 | 75 | 1018.0 |
| 20260505000115 | 75 | 241 | 4.0 | 4.0 | 0.00 | 0.00 | 0.00 | 74 | 1018.0 |
| 20260504235615 | 74 | 189 | 2.0 | 5.0 | 0.00 | 0.00 | 0.00 | 76 | 1018.0 |
| 20260504235116 | 74 | 298 | 1.0 | 4.0 | 0.00 | 0.00 | 0.00 | 78 | 1018.0 |
| 20260504234615 | 73 | 261 | 0.0 | 4.0 | 0.00 | 0.00 | 0.00 | 80 | 1018.0 |
| 20260504234115 | 73 | 260 | 5.0 | 5.0 | 0.00 | 0.00 | 0.00 | 80 | 1018.0 |
| 20260504233616 | 73 | 225 | 4.0 | 5.0 | 0.00 | 0.00 | 0.00 | 81 | 1018.0 |
| 20260504233115 | 72 | 244 | 4.0 | 6.0 | 0.00 | 0.00 | 0.00 | 82 | 1019.0 |
| 20260504232616 | 72 | 186 | 1.0 | 6.0 | 0.00 | 0.00 | 0.00 | 82 | 1018.0 |
| 20260504232115 | 72 | 197 | 3.0 | 4.0 | 0.00 | 0.00 | 0.00 | 83 | 1018.0 |
| 20260504231615 | 71 | 303 | 0.0 | 6.0 | 0.00 | 0.00 | 0.00 | 84 | 1019.0 |
| 20260504231115 | 71 | 170 | 3.0 | 6.0 | 0.00 | 0.00 | 0.00 | 84 | 1019.0 |
| 20260504230615 | 71 | 130 | 1.0 | 5.0 | 0.00 | 0.00 | 0.00 | 86 | 1018.0 |
| 20260504230121 | 70 | 273 | 0.0 | 5.0 | 0.00 | 0.00 | 0.00 | 87 | 1018.0 |
| 20260504225615 | 70 | 218 | 2.0 | 5.0 | 0.00 | 0.00 | 0.00 | 88 | 1018.0 |
| 20260504225115 | 69 | 199 | 3.0 | 6.0 | 0.00 | 0.00 | 0.00 | 89 | 1018.0 |
| 20260504224617 | 69 | 189 | 4.0 | 7.0 | 0.00 | 0.00 | 0.00 | 90 | 1018.0 |
| 20260504224117 | 69 | 158 | 2.0 | 6.0 | 0.00 | 0.00 | 0.00 | 91 | 1018.0 |
| 20260504223615 | 69 | 174 | 4.0 | 6.0 | 0.00 | 0.00 | 0.00 | 91 | 1018.0 |
| 20260504223116 | 68 | 209 | 3.0 | 3.0 | 0.00 | 0.00 | 0.00 | 96 | 1018.0 |
| 20260504222615 | 68 | 153 | 3.0 | 5.0 | 0.00 | 0.00 | 0.00 | 97 | 1018.0 |
| 20260504222116 | 67 | 225 | 0.0 | 4.0 | 0.00 | 0.00 | 0.00 | 98 | 1018.0 |
| 20260504221616 | 67 | 159 | 3.0 | 3.0 | 0.00 | 0.00 | 0.00 | 98 | 1018.0 |
| 20260504221116 | 66 | 229 | 1.0 | 6.0 | 0.00 | 0.00 | 0.00 | 98 | 1018.0 |
| 20260504220615 | 66 | 148 | 5.0 | 5.0 | 0.00 | 0.00 | 0.00 | 98 | 1018.0 |
| 20260504220115 | 66 | 173 | 1.0 | 3.0 | 0.00 | 0.00 | 0.00 | 98 | 1018.0 |
| 20260504215615 | 66 | 253 | 3.0 | 4.0 | 0.00 | 0.00 | 0.00 | 98 | 1018.0 |
| 20260504215115 | 66 | 126 | 2.0 | 3.0 | 0.00 | 0.00 | 0.00 | 98 | 1018.0 |
| 20260504214615 | 65 | 175 | 1.0 | 3.0 | 0.00 | 0.00 | 0.00 | 98 | 1018.0 |
| 20260504214115 | 65 | 248 | 0.0 | 2.0 | 0.00 | 0.00 | 0.00 | 98 | 1018.0 |
| 20260504213615 | 65 | 166 | 0.0 | 3.0 | 0.00 | 0.00 | 0.00 | 98 | 1018.0 |
| 20260504213117 | 65 | 139 | 3.0 | 5.0 | 0.00 | 0.00 | 0.00 | 98 | 1018.0 |
| 20260504212616 | 65 | 103 | 2.0 | 3.0 | 0.00 | 0.00 | 0.00 | 98 | 1018.0 |
| 20260504212115 | 65 | 231 | 2.0 | 4.0 | 0.00 | 0.00 | 0.00 | 98 | 1018.0 |
| 20260504211618 | 65 | 161 | 3.0 | 4.0 | 0.00 | 0.00 | 0.00 | 98 | 1018.0 |
| 20260504211116 | 64 | 266 | 1.0 | 4.0 | 0.00 | 0.00 | 0.00 | 98 | 1018.0 |
| 20260504210616 | 64 | 188 | 1.0 | 3.0 | 0.00 | 0.00 | 0.00 | 98 | 1018.0 |
| 20260504210115 | 64 | 182 | 3.0 | 3.0 | 0.00 | 0.00 | 0.00 | 98 | 1018.0 |
| 20260504205615 | 64 | 145 | 4.0 | 5.0 | 0.00 | 0.00 | 0.00 | 98 | 1018.0 |
| 20260504205116 | 64 | 177 | 2.0 | 3.0 | 0.00 | 0.00 | 0.00 | 98 | 1018.0 |
| 20260504204615 | 64 | 219 | 1.0 | 3.0 | 0.00 | 0.00 | 0.00 | 98 | 1018.0 |
| 20260504204115 | 64 | 106 | 0.0 | 2.0 | 0.00 | 0.00 | 0.00 | 98 | 1018.0 |
| 20260504203618 | 64 | 134 | 1.0 | 4.0 | 0.00 | 0.00 | 0.00 | 98 | 1018.0 |
| 20260504203115 | 64 | 163 | 3.0 | 3.0 | 0.00 | 0.00 | 0.00 | 98 | 1018.0 |
| 20260504202617 | 64 | 99 | 1.0 | 3.0 | 0.00 | 0.00 | 0.00 | 98 | 1018.0 |
| 20260504202115 | 64 | 221 | 1.0 | 5.0 | 0.00 | 0.00 | 0.00 | 98 | 1018.0 |
| 20260504201617 | 64 | 178 | 2.0 | 4.0 | 0.00 | 0.00 | 0.00 | 98 | 1018.0 |
| 20260504201116 | 64 | 149 | 3.0 | 3.0 | 0.00 | 0.00 | 0.00 | 98 | 1017.0 |
| 20260504200616 | 64 | 167 | 3.0 | 5.0 | 0.00 | 0.00 | 0.00 | 98 | 1017.0 |
| 20260504200115 | 64 | 220 | 3.0 | 5.0 | 0.00 | 0.00 | 0.00 | 98 | 1017.0 |
| 20260504195616 | 64 | 193 | 2.0 | 3.0 | 0.00 | 0.00 | 0.00 | 98 | 1017.0 |
| 20260504195117 | 64 | 252 | 2.0 | 3.0 | 0.00 | 0.00 | 0.00 | 98 | 1017.0 |
| 20260504194617 | 64 | 213 | 2.0 | 3.0 | 0.00 | 0.00 | 0.00 | 98 | 1017.0 |
| 20260504194118 | 64 | 45 | 1.0 | 3.0 | 0.00 | 0.00 | 0.00 | 98 | 1017.0 |
| 20260504193616 | 64 | 167 | 3.0 | 4.0 | 0.00 | 0.00 | 0.00 | 97 | 1017.0 |
| 20260504193115 | 64 | 179 | 0.0 | 3.0 | 0.00 | 0.00 | 0.00 | 98 | 1017.0 |
| 20260504192616 | 63 | 143 | 2.0 | 3.0 | 0.00 | 0.00 | 0.00 | 98 | 1017.0 |
| 20260504191630 | 64 | 239 | 1.0 | 4.0 | 0.00 | 0.00 | 0.00 | 97 | 1017.0 |
| 20260504191115 | 64 | 161 | 0.0 | 3.0 | 0.00 | 0.00 | 0.00 | 97 | 1017.0 |
| 20260504190615 | 64 | 167 | 1.0 | 2.0 | 0.00 | 0.00 | 0.00 | 97 | 1017.0 |
| 20260504190115 | 64 | 140 | 2.0 | 3.0 | 0.00 | 0.00 | 0.00 | 97 | 1017.0 |
| 20260504185616 | 64 | 129 | 2.0 | 3.0 | 0.00 | 0.00 | 0.00 | 97 | 1017.0 |
| 20260504185121 | 64 | 220 | 0.0 | 2.0 | 0.00 | 0.00 | 0.00 | 97 | 1017.0 |
| 20260504184615 | 64 | 161 | 1.0 | 2.0 | 0.00 | 0.00 | 0.00 | 97 | 1017.0 |
| 20260504184115 | 64 | 123 | 2.0 | 3.0 | 0.00 | 0.00 | 0.00 | 97 | 1017.0 |
| 20260504183615 | 64 | 89 | 0.0 | 2.0 | 0.00 | 0.00 | 0.00 | 97 | 1017.0 |
| 20260504183115 | 64 | 140 | 1.0 | 2.0 | 0.00 | 0.00 | 0.00 | 97 | 1016.0 |
| 20260504182615 | 64 | 187 | 1.0 | 3.0 | 0.00 | 0.00 | 0.00 | 97 | 1017.0 |
| 20260504182115 | 64 | 237 | 2.0 | 2.0 | 0.00 | 0.00 | 0.00 | 97 | 1016.0 |
| 20260504181616 | 64 | 151 | 1.0 | 3.0 | 0.00 | 0.00 | 0.00 | 97 | 1017.0 |
| 20260504181116 | 64 | 206 | 0.0 | 2.0 | 0.00 | 0.00 | 0.00 | 97 | 1016.0 |
| 20260504180616 | 64 | 98 | 1.0 | 2.0 | 0.00 | 0.00 | 0.00 | 97 | 1016.0 |
| 20260504180115 | 64 | 211 | 1.0 | 3.0 | 0.00 | 0.00 | 0.00 | 97 | 1016.0 |
| 20260504175616 | 65 | 300 | 0.0 | 2.0 | 0.00 | 0.00 | 0.00 | 97 | 1016.0 |
| 20260504175116 | 65 | 262 | 1.0 | 2.0 | 0.00 | 0.00 | 0.00 | 97 | 1016.0 |
| 20260504174616 | 65 | 279 | 1.0 | 2.0 | 0.00 | 0.00 | 0.00 | 97 | 1016.0 |
| 20260504174118 | 65 | 180 | 2.0 | 2.0 | 0.00 | 0.00 | 0.00 | 97 | 1016.0 |
| 20260504173616 | 65 | 180 | 0.0 | 2.0 | 0.00 | 0.00 | 0.00 | 97 | 1017.0 |
| 20260504173116 | 65 | 267 | 2.0 | 3.0 | 0.00 | 0.00 | 0.00 | 97 | 1017.0 |
| 20260504172616 | 65 | 278 | 2.0 | 4.0 | 0.00 | 0.00 | 0.00 | 97 | 1016.0 |
| 20260504172116 | 65 | 175 | 2.0 | 2.0 | 0.00 | 0.00 | 0.00 | 97 | 1016.0 |
| 20260504171616 | 65 | 214 | 1.0 | 4.0 | 0.00 | 0.00 | 0.00 | 97 | 1016.0 |
| 20260504171115 | 65 | 273 | 1.0 | 3.0 | 0.00 | 0.00 | 0.00 | 97 | 1016.0 |
| 20260504170616 | 65 | 247 | 2.0 | 3.0 | 0.00 | 0.00 | 0.00 | 97 | 1017.0 |
| 20260504170115 | 66 | 235 | 1.0 | 3.0 | 0.00 | 0.00 | 0.00 | 97 | 1016.0 |
| 20260504160117 | 65 | 187 | 2.0 | 3.0 | 0.00 | 0.00 | 0.00 | 96 | 1017.0 |
| 20260504151116 | 66 | 235 | 0.0 | 2.0 | 0.00 | 0.00 | 0.00 | 95 | 1017.0 |
| 20260504150616 | 66 | 40 | 1.0 | 2.0 | 0.00 | 0.00 | 0.00 | 95 | 1017.0 |
| 20260504150116 | 67 | 180 | 2.0 | 2.0 | 0.00 | 0.00 | 0.00 | 95 | 1017.0 |
| 20260504141117 | 66 | 146 | 2.0 | 3.0 | 0.00 | 0.00 | 0.00 | 95 | 1017.0 |
| 20260504140620 | 66 | 300 | 1.0 | 3.0 | 0.00 | 0.00 | 0.00 | 95 | 1018.0 |
| 20260504140120 | 66 | 147 | 2.0 | 3.0 | 0.00 | 0.00 | 0.00 | 95 | 1018.0 |
| 20260504130619 | 67 | 224 | 2.0 | 3.0 | 0.00 | 0.00 | 0.00 | 93 | 1018.0 |
| 20260504130119 | 67 | 132 | 0.0 | 4.0 | 0.00 | 0.00 | 0.00 | 93 | 1018.0 |
| 20260504120115 | 69 | 122 | 2.0 | 3.0 | 0.00 | 0.00 | 0.00 | 91 | 1018.0 |
| 20260504110615 | 69 | 111 | 2.0 | 5.0 | 0.00 | 0.00 | 0.00 | 91 | 1019.0 |
| 20260504110115 | 69 | 112 | 4.0 | 5.0 | 0.00 | 0.00 | 0.00 | 91 | 1019.0 |
| 20260504100615 | 69 | 121 | 2.0 | 3.0 | 0.00 | 0.00 | 0.00 | 90 | 1019.0 |
| 20260504100115 | 70 | 110 | 1.0 | 3.0 | 0.00 | 0.00 | 0.00 | 89 | 1018.0 |
| 20260504090116 | 71 | 88 | 4.0 | 5.0 | 0.00 | 0.00 | 0.00 | 86 | 1018.0 |
| 20260504081616 | 71 | 92 | 4.0 | 5.0 | 0.00 | 0.00 | 0.00 | 83 | 1017.0 |
| 20260504081115 | 72 | 113 | 3.0 | 4.0 | 0.00 | 0.00 | 0.00 | 83 | 1017.0 |
| 20260504080616 | 72 | 102 | 3.0 | 4.0 | 0.00 | 0.00 | 0.00 | 82 | 1017.0 |
| 20260504080115 | 72 | 85 | 2.0 | 5.0 | 0.00 | 0.00 | 0.00 | 82 | 1017.0 |
| 20260504070116 | 74 | 28 | 3.0 | 7.0 | 0.00 | 0.00 | 0.00 | 76 | 1017.0 |
| 20260504060115 | 75 | 105 | 5.0 | 6.0 | 0.00 | 0.00 | 0.00 | 72 | 1016.0 |
| 20260504050615 | 77 | 111 | 9.0 | 10.0 | 0.00 | 0.00 | 0.00 | 68 | 1016.0 |
| 20260504050115 | 77 | 48 | 7.0 | 9.0 | 0.00 | 0.00 | 0.00 | 67 | 1016.0 |
| 20260504045616 | 77 | 97 | 5.0 | 7.0 | 0.00 | 0.00 | 0.00 | 67 | 1016.0 |
| 20260504045117 | 77 | 105 | 5.0 | 11.0 | 0.00 | 0.00 | 0.00 | 66 | 1016.0 |
| 20260504044615 | 77 | 126 | 4.0 | 7.0 | 0.00 | 0.00 | 0.00 | 67 | 1016.0 |
| 20260504044115 | 77 | 57 | 7.0 | 12.0 | 0.00 | 0.00 | 0.00 | 67 | 1016.0 |
| 20260504043616 | 77 | 85 | 4.0 | 12.0 | 0.00 | 0.00 | 0.00 | 67 | 1016.0 |
| 20260504043115 | 79 | 86 | 8.0 | 11.0 | 0.00 | 0.00 | 0.00 | 64 | 1016.0 |
| 20260504042615 | 79 | 119 | 4.0 | 6.0 | 0.00 | 0.00 | 0.00 | 64 | 1016.0 |
| 20260504042116 | 78 | 71 | 6.0 | 6.0 | 0.00 | 0.00 | 0.00 | 65 | 1016.0 |
| 20260504041616 | 77 | 53 | 2.0 | 5.0 | 0.00 | 0.00 | 0.00 | 65 | 1016.0 |
| 20260504041115 | 78 | 71 | 9.0 | 9.0 | 0.00 | 0.00 | 0.00 | 63 | 1016.0 |
| 20260504040616 | 78 | 56 | 6.0 | 9.0 | 0.00 | 0.00 | 0.00 | 63 | 1016.0 |
| 20260504040116 | 79 | 41 | 3.0 | 9.0 | 0.00 | 0.00 | 0.00 | 62 | 1016.0 |
| 20260504035615 | 79 | 50 | 5.0 | 8.0 | 0.00 | 0.00 | 0.00 | 61 | 1016.0 |
| 20260504035116 | 79 | 54 | 5.0 | 8.0 | 0.00 | 0.00 | 0.00 | 60 | 1016.0 |
| 20260504034616 | 78 | 80 | 3.0 | 6.0 | 0.00 | 0.00 | 0.00 | 62 | 1016.0 |
| 20260504034115 | 79 | 46 | 5.0 | 11.0 | 0.00 | 0.00 | 0.00 | 62 | 1016.0 |
| 20260504033615 | 79 | 71 | 9.0 | 11.0 | 0.00 | 0.00 | 0.00 | 61 | 1016.0 |
| 20260504033116 | 78 | 63 | 7.0 | 10.0 | 0.00 | 0.00 | 0.00 | 59 | 1016.0 |
| 20260504032615 | 78 | 52 | 5.0 | 10.0 | 0.00 | 0.00 | 0.00 | 61 | 1016.0 |
| 20260504032115 | 78 | 22 | 3.0 | 11.0 | 0.00 | 0.00 | 0.00 | 62 | 1017.0 |
| 20260504031615 | 80 | 76 | 7.0 | 11.0 | 0.00 | 0.00 | 0.00 | 60 | 1017.0 |
| 20260504031115 | 80 | 84 | 2.0 | 9.0 | 0.00 | 0.00 | 0.00 | 61 | 1017.0 |
| 20260504030615 | 79 | 70 | 6.0 | 9.0 | 0.00 | 0.00 | 0.00 | 64 | 1017.0 |
| 20260504030115 | 78 | 65 | 8.0 | 11.0 | 0.00 | 0.00 | 0.00 | 65 | 1017.0 |
| 20260504025615 | 77 | 93 | 4.0 | 10.0 | 0.00 | 0.00 | 0.00 | 66 | 1017.0 |
| 20260504025115 | 78 | 57 | 8.0 | 12.0 | 0.00 | 0.00 | 0.00 | 64 | 1017.0 |
| 20260504024615 | 79 | 51 | 6.0 | 13.0 | 0.00 | 0.00 | 0.00 | 63 | 1017.0 |
| 20260504024116 | 78 | 27 | 8.0 | 9.0 | 0.00 | 0.00 | 0.00 | 64 | 1017.0 |
| 20260504023615 | 79 | 15 | 3.0 | 8.0 | 0.00 | 0.00 | 0.00 | 63 | 1017.0 |
| 20260504023115 | 78 | 42 | 7.0 | 11.0 | 0.00 | 0.00 | 0.00 | 64 | 1017.0 |
| 20260504022615 | 78 | 74 | 5.0 | 5.0 | 0.00 | 0.00 | 0.00 | 64 | 1018.0 |
| 20260504022115 | 77 | 74 | 4.0 | 8.0 | 0.00 | 0.00 | 0.00 | 65 | 1017.0 |
| 20260504021616 | 79 | 98 | 5.0 | 9.0 | 0.00 | 0.00 | 0.00 | 63 | 1018.0 |
| 20260504021115 | 79 | 39 | 3.0 | 5.0 | 0.00 | 0.00 | 0.00 | 63 | 1018.0 |
| 20260504020615 | 78 | 53 | 7.0 | 10.0 | 0.00 | 0.00 | 0.00 | 64 | 1018.0 |
| 20260504020115 | 78 | 79 | 8.0 | 11.0 | 0.00 | 0.00 | 0.00 | 62 | 1018.0 |
| 20260504015615 | 78 | 99 | 4.0 | 6.0 | 0.00 | 0.00 | 0.00 | 66 | 1018.0 |
| 20260504015115 | 77 | 82 | 3.0 | 5.0 | 0.00 | 0.00 | 0.00 | 67 | 1018.0 |